Regional Weather Roundup
Issued by NWS

Home | Current Version | Previous Version | Graphics & Text | Print | Product List | Glossary On
Versions: 1 2 3 4 5 6 7 8 9 10 11 12 13 14 15 16 17 18 19 20 21 22 23 24 25 26 27 28 29 30 31 32 33 34 35 36 37 38 39 40 41 42 43 44 45 46 47 48 49 50
000
ASUS43 KFSD 182010
RWRSD

WEATHER ROUNDUP FOR SOUTH DAKOTA
NATIONAL WEATHER SERVICE SIOUX FALLS SD
200 PM CST WED JAN 18 2017

NOTE: "FAIR" INDICATES FEW OR NO CLOUDS BELOW 12,000 FEET WITH NO
SIGNIFICANT WEATHER AND/OR OBSTRUCTIONS TO VISIBILITY.


SDZ001>005-009-010-012>017-182100-
NORTHWEST AND NORTH CENTRAL SOUTH DAKOTA

CITY           SKY/WX    TMP DP  RH WIND       PRES   REMARKS
BUFFALO          N/A     41  24  51 NW7       29.60F
FAITH            N/A     33  25  72 SW7       29.68F WCI  27
MOBRIDGE       CLOUDY    28  20  71 S10       29.69F WCI  19
$$

SDZ012>016-024>037-041>051-057-063-072>074-182100-
SOUTHWEST AND SOUTH CENTRAL SOUTH DAKOTA

CITY           SKY/WX    TMP DP  RH WIND       PRES   REMARKS
RAPID CTY ARPT CLOUDY    37  24  59 CALM      29.68F
PIERRE         CLOUDY    30  23  75 S6        29.73F WCI  24
CUSTER         SUNNY     60  19  20 W5        29.73F
ELLSWORTH AFB  CLOUDY    41  28  60 SE6       29.67F
PHILIP         CLOUDY    34  27  75 NE6       29.72F WCI  29
PINE RIDGE     CLOUDY    39  25  57 SW6       29.75F
SPEARFISH      FAIR      50  30  46 E3        29.68F
WINNER         FAIR      52  25  35 SW12      29.74F
$$

SDZ004>011-016>023-039-040-182100-
NORTHEAST SOUTH DAKOTA

CITY           SKY/WX    TMP DP  RH WIND       PRES   REMARKS
ABERDEEN       CLOUDY    29  20  69 S14       29.76F WCI  18
WATERTOWN      SUNNY     33  27  78 S7        29.77F WCI  27
BROOKINGS      SUNNY     40  29  64 S3        29.79F
SISSETON         N/A     44  29  55 VRB5      29.71F
$$

SDZ017-020-022-023-036>040-048>070-182100-
SOUTHEAST SOUTH DAKOTA

CITY           SKY/WX    TMP DP  RH WIND       PRES   REMARKS
SIOUX FALLS    MOSUNNY   43  34  70 S7        29.82F
HURON          SUNNY     38  27  64 SE6       29.78F
CHAMBERLAIN    SUNNY     45  28  52 CALM      29.75F
MITCHELL       SUNNY     44  33  65 SE9       29.79F
YANKTON        SUNNY     50  36  57 S9        29.80F
$$

ABBREVIATIONS USED IN REMARKS
   TC - TEMPERATURE IN CELSIUS
  WCI - WIND CHILL INDEX
   HX - HEAT INDEX
  VSB - VISIBILITY





USA.gov is the U.S. government's official web portal to all federal, state and local government web resources and services.